Погода в Сидзуоке

Япония     34°59′34″N   138°26′10″E
темп.,
°C
ветер,
м/с
пор.,
м/с
влажн.,
%
обл.,
%
осадки,
мм/ч
давл.,
гПа
погр.,
м
29 июля, чт
чт2900:00+25з25837 1.5 1003255
03:00+24зсз128839 3.5 1003127
06:00+24сз118616 0.6 1003125
09:00+27ююз237715 0.8 1003614
12:00+28ю557623 1.1 1002636
15:00+27ю678260 4.4 1001500
18:00+26ююз578515 5.5 1002492
21:00+25ююз358672 9.7 1003301
30 июля, пт
пт3000:00+25юз238459 2.7 1002241
03:00+25ссз1184100 5.1 1001155
06:00+24с228740 0.0 1002130
09:00+26вюв117711 0.4 1002371
12:00+27ю337046 1.3 1001694
15:00+27ю337049 2.5 1001751
18:00+27ююз227429 0.2 1001511
21:00+26ююз118013 0.4 1002163
31 июля, сб
сб3100:00+24ссз118771 2.4 100245
03:00+24ссз228659 4.4 1001108
06:00+24с238593 1.3 1002173
09:00+27всв237326 1.6 1003501
12:00+28ю22676 0.2 1002532
15:00+28ю547243 0.3 1001539
18:00+27ююз2381100 2.1 1002228
21:00+25ю128280 2.6 1003258
1 августа, вс
вс100:00+24сз11863 0.1 1002107
03:00+23с33870 0.1 1002126
06:00+23с33830 0.0 1003152
09:00+27св23684 0.0 1002397
12:00+29юв12570 0.0 1001541
15:00+29ююв33652 0.0 1001599
18:00+28вюв23721 0.1 1001361
21:00+26св348257 0.1 1003238
2 августа, пн
пн200:00+25ссв338588 0.4 1002151
03:00+25всв1188100 2.4 100248
06:00+24ссв3492100 3.2 1004196
09:00+25св3492100 5.3 1005231
12:00+26св3588100 3.0 1006302
15:00+26всв358889 3.8 1007313
18:00+27всв23861 0.9 100895
21:00+26св238825 1.9 101070